[[{"header":{"parameterUnit":"m.s-1","parameterCategory":1,"la1":30.2991,"la2":30.254,"lo1":-89.0895,"lo2":-89.0444,"dy":0.0017,"dx":0.0017,"nx":28,"ny":28,"refTime":"2025-04-23T09:00:00:Z","depth":0,"parameterNumber":2,"parameterNumberName":"U-component_of_WINDS"},"data":[0,0,0,0,0,0,0,0,0,0,0,0,0,0,0,0,0,0,0,0,0,0,0,0,0,0,0,0,0,0,0,0,0,0,0,0,0,0,0,0,0,0,0,0,0,0,0,0,0,0,0,0,0,0,0,0,0,0,-2.0953,-2.0953,0,-2.0953,-2.0953,-2.0953,-2.0906,-2.0905,-2.0904,-2.0903,-2.0903,-2.0904,-2.0905,0,0,0,0,0,0,0,0,0,0,0,0,0,-2.0913,-2.0914,-2.0953,-2.0953,-2.0953,-2.0953,-2.0953,-2.0953,-2.0907,-2.0905,-2.0904,-2.0902,-2.0902,-2.0904,-2.0905,0,0,0,0,0,0,0,0,0,0,0,0,0,-2.0924,-2.0915,-2.0953,-2.093,-2.0928,-2.0953,-2.0953,-2.0953,-2.0907,-2.0905,-2.0903,-2.0901,-2.0902,-2.0903,-2.0905,-2.0953,0,0,-2.091,-2.0911,0,0,0,0,0,0,0,0,-2.0923,-2.0925,-2.0933,-2.0932,-2.0929,-2.0928,-2.0939,-2.0953,-2.0907,-2.0915,-2.0903,-2.09,-2.0913,-2.0913,-2.0917,-2.0953,-2.0953,-2.0911,-2.0912,-2.0912,-2.0913,0,0,0,0,0,0,0,-2.0923,-2.0925,-2.0953,-2.0934,-2.0931,-2.092,-2.0919,-2.0942,-2.0924,-2.0914,-2.0911,-2.0911,-2.0911,-2.0916,-2.0917,-2.0953,-2.091,-2.0912,-2.0913,-2.0914,-2.1028,-2.103,0,0,0,0,0,0,-2.0925,-2.0925,-2.0953,-2.0953,-2.0922,-2.0922,-2.0921,-2.093,-2.0924,-2.0921,-2.0913,-2.0909,-2.0914,-2.0915,-2.0917,-2.0972,-2.0912,-2.0914,-2.0915,-2.1026,-2.1029,-2.1031,0,0,0,0,0,0,-2.0924,-2.0928,-2.0953,-2.0938,-2.0941,-2.0925,-2.0935,-2.0931,-2.0936,-2.0923,-2.0919,-2.0921,-2.0912,-2.0914,-2.0944,-2.0971,-2.0915,-2.0916,-2.1024,-2.1027,-2.103,-2.1083,0,0,0,0,0,0,-2.0923,-2.0928,-2.0946,-2.0939,-2.0942,-2.0981,-2.0937,-2.0933,-2.0939,-2.0934,-2.0929,-2.0927,-2.0911,-2.0942,-2.0946,-2.0973,-2.0918,-2.1021,-2.1025,-2.1029,-2.1079,-2.1088,-2.1095,0,0,0,0,0,-2.0922,-2.0961,-2.0947,-2.0951,-2.0963,-2.0983,-2.0984,-2.0965,-2.0941,-2.0959,-2.0951,-2.0927,-2.0968,-2.0946,-2.095,-2.0977,-2.1019,-2.1024,-2.1028,-2.1075,-2.1086,-2.1095,0,0,0,0,0,0,-2.0971,-2.0959,-2.0944,-2.0982,-2.0983,-2.0975,-2.0996,-2.0977,-2.0985,-2.098,-2.0957,-2.0956,-2.099,-2.0987,-2.0962,-2.1023,-2.099,-2.0995,-2.1024,-2.1034,-2.1042,-2.1042,-2.0919,0,0,0,0,0,-2.0986,-2.1003,-2.0992,-2.1026,-2.1028,-2.1012,-2.102,-2.1005,-2.1006,-2.1007,-2.1,-2.1002,-2.1016,-2.1025,-2.1036,-2.1079,-2.1077,-2.11,-2.1108,-2.1115,-2.112,-2.1142,-2.1152,-2.1046,-2.1045,-2.1045,0,0,-2.1018,-2.1013,-2.1025,-2.1036,-2.1035,-2.1053,-2.1013,-2.1033,-2.1046,-2.101,-2.1037,-2.1033,-2.1034,-2.107,-2.1086,-2.1069,-2.1149,-2.1121,-2.1126,-2.1127,-2.1148,-2.1158,-2.1167,-2.1049,-2.1048,-2.1048,0,0,-2.1084,-2.1082,-2.1111,-2.1112,-2.1112,-2.1101,-2.1108,-2.1103,-2.1099,-2.1126,-2.1099,-2.1115,-2.1138,-2.114,-2.1143,-2.1212,-2.119,-2.1216,-2.1258,-2.1281,-2.1289,-2.1296,-2.132,-2.1329,-2.1221,-2.1222,-2.1222,0,-2.1122,-2.1148,-2.1128,-2.115,-2.1155,-2.1124,-2.1153,-2.1154,-2.1159,-2.1163,-2.1144,-2.1173,-2.1171,-2.1208,-2.1225,-2.1229,-2.1236,-2.1216,-2.1289,-2.1297,-2.1303,-2.1326,-2.1335,-2.1225,-2.1224,-2.1224,-2.1224,0,-2.1195,-2.1214,-2.1237,-2.1242,-2.125,-2.1276,-2.1259,-2.127,-2.1256,-2.1247,-2.1276,-2.1273,-2.1284,-2.1292,-2.1277,-2.1326,-2.1316,-2.1294,-2.1259,-2.1317,-2.1337,-2.1346,-2.1229,-2.1228,-2.1227,-2.1226,0,0,-2.1291,-2.1285,-2.1294,-2.1296,-2.1295,-2.1308,-2.1333,-2.1343,-2.1353,-2.1358,-2.1377,-2.1399,-2.1378,-2.1383,-2.1368,-2.1388,-2.1442,-2.1363,-2.1363,-2.1378,-2.1496,-2.1512,-2.1523,-2.1428,-2.143,-2.1431,-2.1496,0,-2.1354,-2.1395,-2.1378,-2.1421,-2.1437,-2.1408,-2.143,-2.1431,-2.1425,-2.1438,-2.1431,-2.1446,-2.1418,-2.1421,-2.1439,-2.1432,-2.1466,-2.1427,-2.1446,-2.1447,-2.1446,-2.1533,-2.155,-2.1611,-2.1504,-2.1505,-2.1506,0,-2.1433,-2.1441,-2.1486,-2.1482,-2.1488,-2.1508,-2.1516,-2.1529,-2.1531,-2.1525,-2.1531,-2.1512,-2.1536,-2.1503,-2.1536,-2.151,-2.1517,-2.1515,-2.1517,-2.1517,-2.1479,-2.1535,-2.163,-2.1639,-2.1519,-2.1518,-2.1517,0,-2.1498,-2.152,-2.1549,-2.1552,-2.1548,-2.1563,-2.1562,-2.1562,-2.1569,-2.1577,-2.1582,-2.1593,-2.1598,-2.1607,-2.1592,-2.1569,-2.1627,-2.1592,-2.1622,-2.1623,-2.1635,-2.1634,-2.1731,-2.1641,-2.1641,-2.1641,-2.164,0,-2.157,-2.1598,-2.1578,-2.1596,-2.1627,-2.1608,-2.1639,-2.1635,-2.1635,-2.1652,-2.1628,-2.1644,-2.1624,-2.1639,-2.1628,-2.1656,-2.1659,-2.1655,-2.1651,-2.1656,-2.1657,-2.166,-2.1655,-2.1643,-2.1643,-2.1642,-2.1642,0,-2.1646,-2.1634,-2.1664,-2.1659,-2.1658,-2.1681,-2.1676,-2.1693,-2.1685,-2.1707,-2.1711,-2.1699,-2.1715,-2.1701,-2.1717,-2.1709,-2.1747,-2.1738,-2.1747,-2.1744,-2.1774,-2.1771,-2.1876,-2.1889,-2.1791,-2.1792,-2.1793,0,-2.1692,-2.1713,-2.1711,-2.172,-2.1721,-2.1737,-2.1745,-2.1727,-2.1737,-2.1741,-2.1757,-2.1771,-2.1781,-2.1808,-2.1801,-2.1813,-2.1803,-2.1839,-2.1804,-2.1809,-2.1803,-2.1801,-2.1803,-2.1846,-2.1847,-2.1848,-2.1849,0,-2.1776,-2.1769,-2.1781,-2.1792,-2.1802,-2.1809,-2.1815,-2.1824,-2.1806,-2.1818,-2.1834,-2.1842,-2.1858,-2.1873,-2.1882,-2.1881,-2.1862,-2.186,-2.1867,-2.1872,-2.1876,-2.1874,-2.1765,-2.1857,-2.1856,-2.1856,-2.1855,-2.1855,-2.1838,-2.1855,-2.1856,-2.1871,-2.1874,-2.188,-2.1895,-2.1889,-2.1903,-2.1914,-2.1903,-2.1923,-2.1925,-2.1936,-2.1938,-2.1953,-2.1938,-2.1949,-2.1951,-2.1954,-2.1958,-2.1875,-2.1955,-2.1954,-2.1954,-2.1954,-2.1954,0,-2.192,-2.1919,-2.1933,-2.1942,-2.1953,-2.1935,-2.194,-2.1951,-2.1969,-2.1972,-2.1983,-2.2002,-2.2016,-2.201,-2.2022,-2.2036,-2.2027,-2.2039,-2.2038,-2.2038,-2.1971,-2.1963,-2.2046,-2.2046,-2.2046,-2.2046,-2.2046,-2.2046,-2.1963,-2.1992,-2.1985,-2.2015,-2.2014,-2.2033,-2.2038,-2.2044,-2.2046,-2.2068,-2.208,-2.2076,-2.2076,-2.2088,-2.2101,-2.2099,-2.2104,-2.2119,-2.2114,-2.2052,-2.2043,-2.2034,-2.2026,-2.2121,-2.2121,-2.2179,-2.218,-2.218]},{"header":{"parameterUnit":"m.s-1","parameterCategory":1,"la1":30.2991,"la2":30.254,"lo1":-89.0895,"lo2":-89.0444,"dy":0.0017,"dx":0.0017,"nx":28,"ny":28,"refTime":"2025-04-23T09:00:00:Z","depth":0,"parameterNumber":3,"parameterNumberName":"V-component_of_WINDS"},"data":[0,0,0,0,0,0,0,0,0,0,0,0,0,0,0,0,0,0,0,0,0,0,0,0,0,0,0,0,0,0,0,0,0,0,0,0,0,0,0,0,0,0,0,0,0,0,0,0,0,0,0,0,0,0,0,0,0,0,2.1667,2.1668,0,2.1695,2.1696,2.1696,2.1684,2.1683,2.1683,2.1682,2.1709,2.171,2.1711,0,0,0,0,0,0,0,0,0,0,0,0,0,2.1601,2.1603,2.1667,2.1668,2.1668,2.1695,2.1696,2.1696,2.1684,2.1683,2.1683,2.1682,2.1708,2.171,2.1712,0,0,0,0,0,0,0,0,0,0,0,0,0,2.163,2.1603,2.1667,2.1665,2.1665,2.1695,2.1696,2.1696,2.1684,2.1683,2.1682,2.1681,2.1708,2.171,2.1712,2.1744,0,0,2.1718,2.1719,0,0,0,0,0,0,0,0,2.1628,2.1632,2.1665,2.1666,2.1666,2.1685,2.1682,2.1712,2.1685,2.1677,2.1682,2.1681,2.1702,2.1704,2.1711,2.1746,2.1747,2.1718,2.1719,2.172,2.1721,0,0,0,0,0,0,0,2.1626,2.1631,2.1678,2.1666,2.1666,2.1662,2.1665,2.1688,2.1695,2.1678,2.1677,2.168,2.1702,2.171,2.1712,2.1747,2.1718,2.172,2.1721,2.1722,2.1809,2.181,0,0,0,0,0,0,2.1624,2.1629,2.1677,2.1679,2.1644,2.1665,2.1668,2.168,2.1694,2.1696,2.1681,2.168,2.1707,2.171,2.1713,2.1752,2.172,2.1722,2.1723,2.1808,2.181,2.1811,0,0,0,0,0,0,2.1623,2.1629,2.1676,2.1654,2.166,2.1667,2.168,2.1681,2.1689,2.1697,2.1698,2.1688,2.1706,2.171,2.1737,2.1753,2.1723,2.1725,2.1807,2.1809,2.181,2.1831,0,0,0,0,0,0,2.1621,2.1628,2.1641,2.1654,2.1661,2.17,2.1681,2.1682,2.1693,2.1691,2.1704,2.1705,2.1705,2.1734,2.1739,2.1755,2.1726,2.1806,2.1808,2.181,2.1829,2.1833,2.1837,0,0,0,0,0,2.1619,2.1646,2.1642,2.1648,2.1677,2.1701,2.1705,2.1705,2.1694,2.1707,2.1712,2.1705,2.175,2.1737,2.1742,2.1759,2.1805,2.1807,2.181,2.1827,2.1832,2.1837,0,0,0,0,0,0,2.1633,2.1647,2.1643,2.1675,2.1687,2.1699,2.1715,2.1711,2.1726,2.1723,2.1723,2.1726,2.1753,2.1759,2.1743,2.1792,2.1776,2.1779,2.1787,2.1792,2.1796,2.1794,2.1728,0,0,0,0,0,2.164,2.1659,2.167,2.1697,2.1703,2.1708,2.1719,2.1718,2.173,2.1735,2.1742,2.1754,2.177,2.1782,2.1797,2.183,2.1832,2.1844,2.1848,2.1851,2.1854,2.1872,2.1877,2.1819,2.1819,2.1819,0,0,2.1655,2.1665,2.1676,2.17,2.1709,2.1728,2.1713,2.1733,2.1747,2.1738,2.1764,2.1769,2.1782,2.1812,2.1825,2.1817,2.1871,2.1854,2.1857,2.1858,2.1875,2.188,2.1885,2.1821,2.1821,2.182,0,0,2.1691,2.17,2.1724,2.1734,2.1748,2.1751,2.1757,2.177,2.1774,2.18,2.1793,2.1809,2.1838,2.1848,2.1856,2.1896,2.189,2.1901,2.1922,2.1939,2.1944,2.1948,2.1962,2.1967,2.1905,2.1905,2.1905,0,2.1707,2.1736,2.1736,2.1758,2.1768,2.1762,2.1785,2.1794,2.1813,2.182,2.1811,2.1848,2.1856,2.1888,2.1898,2.1905,2.1911,2.19,2.1943,2.1947,2.1951,2.1964,2.197,2.1906,2.1906,2.1906,2.1906,0,2.1754,2.1775,2.1792,2.1811,2.1824,2.1846,2.185,2.1862,2.186,2.1864,2.1891,2.19,2.1918,2.1926,2.1924,2.1957,2.1952,2.1943,2.1927,2.1958,2.197,2.1976,2.1908,2.1907,2.1907,2.1907,0,0,2.18,2.182,2.1826,2.1835,2.1851,2.1866,2.1888,2.1906,2.1917,2.193,2.1948,2.1973,2.1965,2.1975,2.1974,2.1989,2.202,2.1978,2.1978,2.1986,2.2057,2.2064,2.207,2.2016,2.2017,2.2018,2.2056,0,2.1837,2.1877,2.1878,2.1914,2.1933,2.1926,2.1946,2.1957,2.1961,2.1977,2.1981,2.1999,2.1988,2.1993,2.2008,2.2013,2.2034,2.201,2.2032,2.2033,2.2029,2.2076,2.2083,2.2119,2.2061,2.2062,2.2062,0,2.1886,2.1902,2.194,2.1953,2.1961,2.1978,2.1995,2.201,2.2023,2.2025,2.2036,2.2033,2.2055,2.2038,2.2068,2.2052,2.2061,2.2065,2.2066,2.2068,2.205,2.208,2.213,2.2136,2.207,2.207,2.2069,0,2.1916,2.1946,2.1973,2.1981,2.1997,2.2009,2.2016,2.2028,2.2039,2.2053,2.206,2.2077,2.2086,2.2098,2.21,2.2087,2.213,2.2113,2.2132,2.2132,2.2141,2.214,2.2194,2.2147,2.2147,2.2147,2.2146,0,2.1958,2.1981,2.1987,2.2003,2.2029,2.203,2.2055,2.2061,2.2072,2.2089,2.2084,2.21,2.2101,2.2117,2.2118,2.2143,2.2147,2.2149,2.2149,2.2149,2.2149,2.2155,2.2153,2.2148,2.2148,2.2147,2.2147,0,2.1995,2.2,2.2029,2.2042,2.2045,2.2064,2.2075,2.209,2.2094,2.2116,2.2121,2.2127,2.2146,2.2148,2.217,2.2171,2.22,2.2198,2.2196,2.2196,2.2214,2.2213,2.2274,2.2282,2.223,2.223,2.223,0,2.2021,2.2039,2.2055,2.2066,2.2074,2.2093,2.2104,2.2105,2.2117,2.2133,2.2147,2.2165,2.218,2.221,2.2216,2.2233,2.223,2.2251,2.2233,2.2233,2.2231,2.223,2.2231,2.2254,2.2255,2.2255,2.2255,0,2.2068,2.2069,2.2086,2.2104,2.2118,2.2132,2.2145,2.2154,2.2158,2.2171,2.2191,2.2202,2.2225,2.2243,2.226,2.2266,2.2261,2.2261,2.2266,2.2267,2.2265,2.2266,2.2206,2.226,2.2259,2.2259,2.2259,2.2258,2.21,2.2116,2.2129,2.2149,2.2159,2.2171,2.2186,2.2193,2.2209,2.2228,2.2228,2.2249,2.2261,2.2283,2.2291,2.2307,2.23,2.2308,2.231,2.2312,2.2314,2.2263,2.231,2.231,2.231,2.231,2.231,0,2.2146,2.2155,2.2172,2.2191,2.2206,2.2201,2.2215,2.2228,2.2247,2.2259,2.2274,2.2296,2.2314,2.2322,2.2339,2.2351,2.2349,2.2355,2.2354,2.2356,2.2319,2.2312,2.2356,2.2356,2.2356,2.2356,2.2356,2.2356,2.2172,2.2199,2.2202,2.2233,2.2241,2.2263,2.2271,2.2283,2.2292,2.2318,2.2333,2.2338,2.2348,2.2366,2.2382,2.2383,2.239,2.2397,2.2398,2.2363,2.2358,2.2354,2.2348,2.2399,2.2399,2.2434,2.2434,2.2434]}]]